Regional Weather Roundup
Issued by NWS State College, PA

Home | Current Version | Previous Version | Text Only | Print | Product List | Glossary On
Versions: 1 2 3 4 5 6 7 8 9 10 11 12 13 14 15 16 17 18 19 20 21 22 23 24 25 26 27 28 29 30 31 32 33 34 35 36 37 38 39 40 41 42 43 44 45 46 47 48 49 50
310
ASUS41 KCTP 241903
RWRCTP

REGIONAL WEATHER ROUNDUP
NATIONAL WEATHER SERVICE STATE COLLEGE PA
300 PM EDT WED AUG 24 2016

Note: "fair" indicates few or no clouds below 12,000 feet with no
significant weather and/or obstructions to visibility.

* = STATION THAT DOES NOT REPORT PRECIPITATION /E.G. RAIN...SNOW...ETC/
    THUNDER OR FOG.

PAZ002>004-007>009-013>016-020>023-029>032-242000-
WESTERN PENNSYLVANIA

CITY           SKY/WX    TMP DP  RH WIND       PRES   REMARKS
ERIE           SUNNY     85  60  42 SW12      30.12F
MEADVILLE      SUNNY     79  59  50 SW10G21   30.17F
FRANKLIN*      SUNNY     81  61  50 SW13      30.19F
NEW CASTLE     FAIR      83  59  44 SW13      30.18F
BEAVER COUNTY  SUNNY     86  61  42 SW9G18    30.19F
BUTLER*        NOT AVBL
PITTSBURGH INT MOSUNNY   83  57  41 SW12      30.19F
PITTSBURGH     SUNNY     83  60  45 S10       30.19F
INDIANA*       SUNNY     82  64  54 W14       30.23F
LATROBE        MOSUNNY   82  64  54 SW12      30.21F
WASHINGTON CO* SUNNY     84  63  48 SW7       30.20F
$$

PAZ004>006-010>012-017>019-024>028-033>037-041-042-045-046-049>053-242000-
CENTRAL PENNSYLVANIA

CITY           SKY/WX    TMP DP  RH WIND       PRES   REMARKS
BRADFORD       MOSUNNY   80  59  48 S12G22    30.21F
DUBOIS         SUNNY     82  60  47 SW9G18    30.20F
CLEARFIELD     MOSUNNY   85  61  44 SW8G21    30.20F
JOHNSTOWN      MOSUNNY   79  62  56 SW9       30.25F
ALTOONA        MOSUNNY   85  62  46 SW7       30.22F
STATE COLLEGE  MOSUNNY   81  64  57 S13       30.21F
WILLIAMSPORT   SUNNY     84  62  47 VRB7      30.17F
SELINSGROVE    SUNNY     83  65  54 SE6       30.20F
FT INDIANTOWN  MOSUNNY   83  64  52 S6        30.21F
CAPITAL CITY   CLOUDY    86  62  44 S13       30.20F
HARRISBURG     CLOUDY    86  67  52 SW6       30.19F
YORK           CLOUDY    84  64  50 VRB7      30.21F
$$

PAZ038>040-043-044-047-048-054-055-060>062-067>071-242000-
EASTERN PENNSYLVANIA

CITY           SKY/WX    TMP DP  RH WIND       PRES   REMARKS
SCRANTON       SUNNY     83  61  47 SW8G18    30.20F
MOUNT POCONO   SUNNY     77  58  51 S10       30.27F
ALLENTOWN      SUNNY     84  60  44 SW10      30.22F
QUAKERTOWN*    CLEAR     84  59  42 CALM      30.24F
READING        MOSUNNY   84  60  44 MISG      30.20F
LANCASTER      MOSUNNY   83  65  54 S8        30.22F
COATESVILLE    PTCLDY    81  63  54 VRB7      30.26F
POTTSTOWN      SUNNY     83  60  45 VRB6      30.24F
BLUE BELL      SUNNY     81  61  50 SW3       30.22F
DOYLESTOWN     MOSUNNY   84  62  47 SE6       30.22F
WILLOW GROVE   NOT AVBL
NORTH PHILA    SUNNY     85  60  42 S8        30.23F
PHILADELPHIA   MOSUNNY   85  59  41 SW10      30.23F
$$




USA.gov is the U.S. government's official web portal to all federal, state and local government web resources and services.